• In Latvia
  • List of Countries
  • For 7 days
  • Water Temperature
  • Satellite Maps
  • Weather Map
  • Weather Widgets
  • user-avatar
    Login

    Hourly Weather Elbasan

    Today, 18 August, Friday

    Time Temperature Precipitation Wind Pressure Humidity
    00:00 +24°C° 0 mm 2 mps 736 mmHg 53%
    01:00 +24°C° 0 mm 2 mps 735 mmHg 54%
    02:00 +23°C° 0 mm 2 mps 735 mmHg 53%
    03:00 +23°C° 0 mm 2 mps 735 mmHg 53%
    04:00 +23°C° 0 mm 2 mps 736 mmHg 53%
    05:00 +25°C° 0 mm 2 mps 736 mmHg 49%
    06:00 +26°C° 0 mm 2 mps 736 mmHg 46%
    07:00 +28°C° 0 mm 2 mps 736 mmHg 42%
    08:00 +30°C° 0 mm 2 mps 736 mmHg 37%
    09:00 +31°C° 0 mm 2 mps 736 mmHg 32%
    10:00 +34°C° 0 mm 2 mps 737 mmHg 27%
    11:00 +35°C° 0 mm 2 mps 736 mmHg 25%
    12:00 +36°C° 0 mm 2 mps 736 mmHg 23%
    13:00 +37°C° 0 mm 3 mps 736 mmHg 22%
    14:00 +36°C° 0 mm 3 mps 736 mmHg 22%
    15:00 +36°C° 0 mm 3 mps 736 mmHg 23%
    16:00 +36°C° 0 mm 4 mps 735 mmHg 23%
    17:00 +33°C° 0 mm 3 mps 735 mmHg 30%
    18:00 +30°C° 0 mm 2 mps 735 mmHg 36%
    19:00 +27°C° 0 mm 1 mps 735 mmHg 43%
    20:00 +26°C° 0 mm 1 mps 736 mmHg 44%
    21:00 +26°C° 0 mm 1 mps 736 mmHg 46%
    22:00 +25°C° 0 mm 1 mps 736 mmHg 47%
    23:00 +24°C° 0 mm 1 mps 736 mmHg 47%

    Tomorrow, 19 August, Saturday

    Time Temperature Precipitation Wind Pressure Humidity
    00:00 +24°C° 0 mm 1 mps 736 mmHg 46%
    01:00 +24°C° 0 mm 2 mps 736 mmHg 46%
    02:00 +23°C° 0 mm 1 mps 736 mmHg 46%
    03:00 +23°C° 0 mm 1 mps 736 mmHg 46%
    04:00 +23°C° 0 mm 1 mps 735 mmHg 46%
    05:00 +25°C° 0 mm 1 mps 736 mmHg 43%
    06:00 +26°C° 0 mm 1 mps 736 mmHg 40%
    07:00 +28°C° 0 mm 1 mps 736 mmHg 37%
    08:00 +30°C° 0 mm 1 mps 736 mmHg 33%
    09:00 +32°C° 0 mm 1 mps 736 mmHg 29%
    10:00 +35°C° 0 mm 1 mps 736 mmHg 25%
    11:00 +36°C° 0 mm 2 mps 736 mmHg 24%
    12:00 +37°C° 0 mm 2 mps 735 mmHg 23%
    13:00 +37°C° 0 mm 3 mps 735 mmHg 22%
    14:00 +37°C° 0 mm 3 mps 735 mmHg 24%
    15:00 +36°C° 0 mm 3 mps 735 mmHg 27%
    16:00 +35°C° 0 mm 3 mps 734 mmHg 29%
    17:00 +33°C° 0 mm 3 mps 734 mmHg 35%
    18:00 +29°C° 0 mm 2 mps 734 mmHg 42%
    19:00 +26°C° 0 mm 1 mps 734 mmHg 48%
    20:00 +26°C° 0 mm 1 mps 735 mmHg 50%
    21:00 +25°C° 0 mm 1 mps 735 mmHg 51%
    22:00 +24°C° 0 mm 1 mps 735 mmHg 52%
    23:00 +24°C° 0 mm 1 mps 735 mmHg 52%

    Day after tomorrow, 20 August, Sunday

    Time Temperature Precipitation Wind Pressure Humidity
    00:00 +24°C° 0 mm 1 mps 735 mmHg 52%
    01:00 +23°C° 0 mm 1 mps 734 mmHg 52%
    02:00 +23°C° 0 mm 1 mps 734 mmHg 52%
    03:00 +23°C° 0 mm 1 mps 734 mmHg 51%
    04:00 +22°C° 0 mm 1 mps 734 mmHg 51%
    05:00 +24°C° 0 mm 1 mps 734 mmHg 46%
    06:00 +26°C° 0 mm 1 mps 734 mmHg 41%
    07:00 +28°C° 0 mm 1 mps 734 mmHg 36%
    08:00 +30°C° 0 mm 1 mps 734 mmHg 32%
    09:00 +32°C° 0 mm 1 mps 734 mmHg 27%
    10:00 +35°C° 0 mm 2 mps 734 mmHg 23%
    11:00 +36°C° 0 mm 2 mps 734 mmHg 22%
    12:00 +36°C° 0 mm 3 mps 734 mmHg 21%
    13:00 +37°C° 0 mm 4 mps 733 mmHg 21%
    14:00 +36°C° 0 mm 4 mps 733 mmHg 24%
    15:00 +35°C° 0 mm 4 mps 733 mmHg 28%
    16:00 +34°C° 0 mm 4 mps 732 mmHg 31%
    17:00 +31°C° 0 mm 3 mps 733 mmHg 39%
    18:00 +28°C° 0 mm 2 mps 733 mmHg 46%
    19:00 +26°C° 0 mm 1 mps 733 mmHg 54%
    20:00 +25°C° 0 mm 1 mps 733 mmHg 57%
    21:00 +24°C° 0 mm 1 mps 733 mmHg 59%
    22:00 +24°C° 0 mm 1 mps 734 mmHg 62%
    23:00 +23°C° 0 mm 1 mps 734 mmHg 64%

    21 August, Monday

    Time Temperature Precipitation Wind Pressure Humidity
    00:00 +23°C° 0 mm 1 mps 734 mmHg 66%
    01:00 +22°C° 0 mm 1 mps 733 mmHg 68%
    02:00 +22°C° 0.1 mm 1 mps 733 mmHg 70%
    03:00 +21°C° 0.1 mm 1 mps 733 mmHg 72%
    04:00 +20°C° 0.1 mm 2 mps 733 mmHg 74%
    05:00 +21°C° 0 mm 2 mps 733 mmHg 69%
    06:00 +24°C° 0 mm 2 mps 734 mmHg 64%
    07:00 +25°C° 0 mm 2 mps 734 mmHg 59%
    08:00 +27°C° 0 mm 2 mps 734 mmHg 53%
    09:00 +29°C° 0 mm 2 mps 734 mmHg 47%
    10:00 +31°C° 0 mm 2 mps 734 mmHg 41%
    11:00 +31°C° 0.1 mm 3 mps 734 mmHg 40%
    12:00 +33°C° 0.1 mm 3 mps 733 mmHg 38%
    13:00 +33°C° 0.1 mm 4 mps 733 mmHg 37%
    14:00 +32°C° 0 mm 4 mps 733 mmHg 37%
    15:00 +32°C° 0 mm 4 mps 733 mmHg 37%
    16:00 +32°C° 0 mm 5 mps 733 mmHg 38%
    17:00 +28°C° 0 mm 4 mps 733 mmHg 45%
    18:00 +26°C° 0 mm 3 mps 733 mmHg 52%
    19:00 +24°C° 0 mm 3 mps 733 mmHg 60%
    20:00 +23°C° 0 mm 2 mps 734 mmHg 63%
    21:00 +21°C° 0 mm 2 mps 734 mmHg 65%
    22:00 +20°C° 0 mm 2 mps 734 mmHg 68%
    23:00 +20°C° 0 mm 2 mps 735 mmHg 67%

    22 August, Tuesday

    Time Temperature Precipitation Wind Pressure Humidity
    00:00 +19°C° 0 mm 2 mps 735 mmHg 65%
    01:00 +19°C° 0 mm 2 mps 735 mmHg 63%
    02:00 +18°C° 0 mm 3 mps 735 mmHg 64%
    03:00 +18°C° 0 mm 3 mps 735 mmHg 64%
    04:00 +17°C° 0 mm 3 mps 735 mmHg 64%
    05:00 +19°C° 0 mm 3 mps 735 mmHg 59%
    06:00 +20°C° 0 mm 3 mps 736 mmHg 54%
    07:00 +22°C° 0 mm 3 mps 736 mmHg 49%
    08:00 +25°C° 0 mm 3 mps 736 mmHg 43%
    09:00 +27°C° 0 mm 3 mps 736 mmHg 37%
    10:00 +29°C° 0 mm 3 mps 736 mmHg 31%
    11:00 +30°C° 0 mm 3 mps 736 mmHg 28%
    12:00 +31°C° 0 mm 3 mps 736 mmHg 25%
    13:00 +33°C° 0 mm 3 mps 735 mmHg 21%
    14:00 +33°C° 0 mm 4 mps 735 mmHg 21%
    15:00 +33°C° 0 mm 4 mps 735 mmHg 21%
    16:00 +32°C° 0 mm 4 mps 735 mmHg 21%
    17:00 +28°C° 0 mm 4 mps 735 mmHg 28%
    18:00 +25°C° 0 mm 3 mps 735 mmHg 35%
    19:00 +21°C° 0 mm 2 mps 735 mmHg 42%
    20:00 +21°C° 0 mm 2 mps 736 mmHg 43%
    21:00 +20°C° 0 mm 2 mps 736 mmHg 44%
    22:00 +19°C° 0 mm 2 mps 736 mmHg 45%
    23:00 +19°C° 0 mm 2 mps 736 mmHg 45%

    23 August, Wednesday

    Time Temperature Precipitation Wind Pressure Humidity
    00:00 +18°C° 0 mm 2 mps 736 mmHg 45%
    01:00 +18°C° 0 mm 2 mps 736 mmHg 45%
    02:00 +18°C° 0 mm 2 mps 736 mmHg 46%
    03:00 +17°C° 0 mm 2 mps 736 mmHg 46%
    04:00 +17°C° 0 mm 2 mps 736 mmHg 47%
    05:00 +19°C° 0 mm 2 mps 737 mmHg 44%
    06:00 +21°C° 0 mm 2 mps 737 mmHg 41%
    07:00 +23°C° 0 mm 2 mps 737 mmHg 37%
    08:00 +26°C° 0 mm 2 mps 737 mmHg 32%
    09:00 +29°C° 0 mm 1 mps 737 mmHg 27%
    10:00 +31°C° 0 mm 1 mps 737 mmHg 22%
    11:00 +32°C° 0 mm 2 mps 737 mmHg 21%
    12:00 +34°C° 0 mm 2 mps 737 mmHg 19%
    13:00 +35°C° 0 mm 3 mps 737 mmHg 17%
    14:00 +34°C° 0 mm 3 mps 736 mmHg 18%
    15:00 +34°C° 0 mm 3 mps 736 mmHg 19%
    16:00 +33°C° 0 mm 4 mps 736 mmHg 20%
    17:00 +29°C° 0 mm 3 mps 736 mmHg 26%
    18:00 +26°C° 0 mm 2 mps 736 mmHg 32%
    19:00 +23°C° 0 mm 1 mps 736 mmHg 38%
    20:00 +23°C° 0 mm 1 mps 737 mmHg 38%
    21:00 +22°C° 0 mm 1 mps 737 mmHg 38%
    22:00 +21°C° 0 mm 1 mps 737 mmHg 39%
    23:00 +21°C° 0 mm 1 mps 737 mmHg 38%
    Show more